Date,TemperatureHighF,TemperatureAvgF,TemperatureLowF,DewpointHighF,DewpointAvgF,DewpointLowF,HumidityHigh,HumidityAvg,HumidityLow,PressureMaxIn,PressureMinIn,WindSpeedMaxMPH,WindSpeedAvgMPH,GustSpeedMaxMPH,PrecipitationSumIn
2013-9-24,68,53,38,52,45,36,95,75,50,30.00,29.83,1,0,8,0.00
2013-9-25,68,55,42,55,48,40,95,79,58,29.93,29.83,0,0,5,0.00
2013-9-26,67,56,50,55,51,47,96,83,59,30.07,29.91,0,0,8,0.00
2013-9-27,63,54,44,55,50,43,97,87,73,30.24,30.07,0,0,1,0.00
2013-9-28,72,57,46,59,52,45,97,84,57,30.31,30.19,0,0,4,0.00
2013-9-29,72,56,45,58,50,-100,97,82,56,30.20,30.03,0,0,2,0.00
2013-9-30,71,57,46,56,51,44,96,82,57,30.06,29.92,0,0,2,0.00
2013-10-1,63,59,51,59,56,49,93,90,86,29.94,29.88,0,0,0,0.00
2013-10-2,79,65,54,67,59,53,96,81,61,29.96,29.85,1,0,6,0.00
2013-10-3,74,63,51,60,55,49,96,78,53,30.08,29.96,0,0,1,0.00
2013-10-4,78,66,57,69,62,55,96,86,70,30.01,29.92,0,0,4,0.00
2013-10-5,73,64,59,67,62,58,98,93,77,30.05,29.97,0,0,2,0.22
2013-10-6,62,60,59,61,59,57,98,96,94,30.06,29.99,4,0,14,1.31
2013-10-7,74,65,56,69,63,52,97,93,83,29.99,29.67,14,1,31,0.55
2013-10-8,66,55,45,52,46,43,95,73,48,30.31,29.90,4,0,17,0.07
2013-10-9,63,50,41,47,43,39,95,80,50,30.40,30.28,0,0,1,0.00
2013-10-10,57,50,44,50,46,40,89,83,76,30.28,30.09,0,0,5,0.00
2013-10-11,70,59,50,61,52,45,90,79,56,30.10,30.00,0,0,3,0.00
2013-10-12,73,57,45,58,49,43,93,77,56,30.27,30.07,0,0,4,0.00
2013-10-13,66,52,47,52,46,-100,94,83,60,30.36,30.27,0,0,3,0.00
2013-10-14,69,54,44,53,48,42,95,81,54,30.32,30.18,2,0,5,0.00
2013-10-15,73,58,48,59,50,40,95,77,51,30.22,30.07,0,0,2,0.00
2013-10-16,63,56,47,57,50,45,92,82,72,30.08,29.85,0,0,2,0.00
2013-10-17,76,64,59,61,58,56,94,82,53,29.86,29.61,3,0,12,0.00
2013-10-18,66,60,51,61,48,41,93,67,45,29.91,29.57,8,2,19,0.01
2013-10-19,65,54,43,51,44,38,91,71,46,29.93,29.67,1,0,8,0.14
2013-10-20,60,51,45,51,40,-100,94,69,44,30.01,29.67,9,2,20,0.14
2013-10-21,68,53,42,45,41,37,84,64,40,30.09,29.92,3,0,10,0.00
2013-10-22,61,53,44,50,46,38,89,78,62,29.92,29.69,2,0,7,0.00
2013-10-23,54,43,36,42,36,34,94,79,50,29.77,29.57,4,0,13,0.00
2013-10-24,52,43,36,37,32,29,89,68,45,29.92,29.68,9,2,21,0.00
2013-10-25,51,44,37,34,32,29,82,62,50,30.15,29.92,7,2,19,0.00
2013-10-26,55,45,36,35,32,30,84,63,42,30.15,29.83,8,1,19,0.00
2013-10-27,54,47,42,36,32,-100,70,56,44,30.05,29.78,10,2,19,0.00
2013-10-28,59,46,36,38,33,-100,84,65,45,30.29,30.05,8,1,17,0.00
2013-10-29,52,42,35,32,30,28,79,64,45,30.40,30.28,2,0,9,0.00
2013-10-30,57,43,34,48,37,29,93,80,69,30.32,30.14,0,0,1,0.00
2013-10-31,60,50,38,58,48,36,97,94,92,30.19,29.75,1,0,10,0.26
2013-11-1,69,63,57,63,55,47,95,78,57,29.73,29.44,8,2,16,0.31
2013-11-2,65,53,44,50,45,41,89,76,49,29.72,29.56,8,0,16,0.01
2013-11-3,47,39,30,42,30,-100,89,72,60,30.41,29.73,4,0,16,0.00
2013-11-4,45,34,25,24,21,18,76,60,41,30.63,30.42,4,0,10,0.00